Location: Im Fang
(46.6019°N, 7.2397°E)
Time: 17:54:08
(UTC+00:00)

ALOS - Pass Details

Date: 08 December 2019
Orbit: 683 x 685 km, 97.8° (Epoch: 28 January)

Event Time Altitude Azimuth Distance (km) Brightness Sun altitude
Rises 05:00:45 0° 13° (NNE) 3,064 5.6 -19.9°
Reaches altitude 10° 05:03:00 10° 13° (NNE) 2,144 4.8 -19.5°
Maximum altitude 05:07:42 90° 65° (ENE) 693 2.2 -18.8°
Drops below altitude 10° 05:12:23 10° 195° (SSW) 2,126 4.8 -18.0°
Sets 05:14:36 0° 195° (SSW) 3,037 5.6 -17.6°
